Weather in Markovo

Russia / Amur Oblast     50°32′38″N   127°22′19″E
temp.,
°C
wind,
m/s
gust,
m/s
humid.,
%
clouds,
%
prec.,
mm/h
press.,
hPa
HPBL,
m
9 may, sun
sun900:00+6n3656100 0.0 1001149
03:00+5n4778100 0.0 1001192
06:00+5n3684100 0.1 1004432
09:00+6n4781100 0.1 1005825
12:00+9n5660100 0.1 10061290
15:00+10nne5656100 0.1 10061317
18:00+9nne4559100 0.1 10071146
21:00+7ne1173100 0.1 100917
10 may, mon
mon1000:00+7nnw1172100 0.0 101013
03:00+6nw1172100 0.1 101024
06:00+6nw2470100 0.0 1011177
09:00+9nnw3453100 0.0 1012780
12:00+13nnw3539100 0.0 10111625
15:00+15n3532100 0.0 10102141
18:00+15ene3334100 0.0 1011856
21:00+9se224968 0.0 101210
11 may, tue
tue1100:00+7ssw115793 0.0 101310
03:00+6sw11631 0.0 101310
06:00+7sse226786 0.0 101428
09:00+13sse464896 0.0 1012590
12:00+17sse7835100 0.0 10111464
15:00+18sse7934100 0.0 10081610
18:00+17sse71237100 0.0 10061505
21:00+15sse71547100 0.0 1005845
12 may, wed
wed1200:00+13sse71453100 0.1 1005897
03:00+11se91773100 0.9 10021202
06:00+10se111984100 2.1 9981309
09:00+10sse91684100 6.8 9951449
12:00+14s8125295 2.8 9942157
15:00+13ssw7115171 3.1 9931720
18:00+10sw686392 0.2 9941092
21:00+9wsw5873100 0.2 995761
13 may, thu
thu1300:00+7w71071100 0.0 997799
03:00+7w7127495 0.0 999929
06:00+7w6116797 0.0 10011104
09:00+11wnw711441 0.0 10031212
12:00+17w611272 0.0 10021944
15:00+20w5102385 0.0 10013274
18:00+20sw2627100 0.0 9992178
21:00+14w1153100 0.1 99912